Regional Weather Roundup
Issued by NWS

Home | Current Version | Previous Version | Text Only | Print | Product List | Glossary Off
Versions: 1 2 3 4 5 6 7 8 9 10 11 12 13 14 15 16 17 18 19 20 21 22 23 24 25 26 27 28 29 30 31 32 33 34 35 36 37 38 39 40 41 42 43 44 45 46 47 48 49 50

000
ASUS43 KDMX 170601
RWRIA

WEATHER ROUNDUP FOR IOWA
NATIONAL WEATHER SERVICE DES MOINES IA
1200 AM CST WED JAN 17 2018

NOTE: "FAIR" INDICATES FEW OR NO CLOUDS BELOW 12,000 FEET WITH NO
SIGNIFICANT WEATHER AND/OR OBSTRUCTIONS TO VISIBILITY.

* - THESE STATIONS ARE NOT NWS STATIONS...THUS NOT UNDER NWS
QUALITY CONTROL.  THEY ALSO DO NOT REPORT WEATHER SUCH
AS PRECIPITATION OR FOG.

IAZ001>003-012>014-020>022-031>034-043>046-170700-
   NORTHWEST IOWA

CITY           SKY/WX    TMP DP  RH WIND       PRES   REMARKS
CARROLL *      CLOUDY     0  -4  85 SW5       30.59F WCI -10
CHEROKEE *     CLOUDY    -3  -6  89 CALM      30.57F
DENISON *      CLOUDY    -4  -6  92 CALM      30.61F
LE MARS *      CLOUDY    -2  -6  84 S3        30.56F
ORANGE CITY *  CLOUDY     0  -2  92 S6        30.51F WCI -12
SHELDON *      CLOUDY     1  -2  85 S9        30.50F WCI -14
SIOUX CITY     CLOUDY    -2  -6  83 E7        30.59F WCI -15
6HR MIN TEMP:  -4; 6HR MAX TEMP:   5;

SPENCER        CLOUDY    -2  -7  79 SW7       30.53F WCI -15
6HR MIN TEMP:  -6; 6HR MAX TEMP:  -1;

STORM LAKE *   CLEAR      0  -4  85 W9        30.53F WCI -16
$$

IAZ055>058-069>071-079>083-090>094-170700-
   SOUTHWEST IOWA

CITY           SKY/WX    TMP DP  RH WIND       PRES   REMARKS
ATLANTIC *     CLOUDY    -6  -9  84 S5        30.62F WCI -17
AUDUBON *      CLOUDY    -4  -8  84 CALM      30.59F
CLARINDA *     CLOUDY    -6  -9  84 CALM      30.68F
COUNCIL BLFS * CLOUDY     1   1 100 S5        30.61F WCI  -8
CRESTON *      CLOUDY    -2  -6  84 W9        30.62F WCI -18
HARLAN  *      CLOUDY    -6  -9  84 CALM      30.64F
LAMONI         CLOUDY     0  -5  79 SW6       30.63F WCI -12
6HR MIN TEMP:  -1; 6HR MAX TEMP:   4;

RED OAK *      CLOUDY    -4  -8  84 CALM      30.65F
SHENANDOAH *   CLEAR     -4  -8  84 CALM      30.67F
$$

IAZ047>049-059>061-072>074-084-170700-
   CENTRAL IOWA

CITY           SKY/WX    TMP DP  RH WIND       PRES   REMARKS
AMES           CLOUDY    -6  -9  86 W6        30.62F WCI -19
6HR MIN TEMP:  -7; 6HR MAX TEMP:   1;

ANKENY *       CLOUDY    -6  -9  84 CALM      30.64F
BOONE *        CLOUDY    -2  -6  84 W7        30.58F WCI -16
CHARITON *     CLOUDY     0  -4  85 W6        30.63S WCI -12
DES MOINES     CLOUDY    -1  -7  75 SW6       30.63F WCI -13
6HR MIN TEMP:  -2; 6HR MAX TEMP:   3;

GRINNELL*      CLOUDY    -3  -6  86 W7        30.62S WCI -16
KNOXVILLE *    CLOUDY     0  -8  71 W9        30.63S WCI -16
MARSHALLTOWN   CLOUDY    -6  -8  91 W3        30.60F
6HR MIN TEMP:  -6; 6HR MAX TEMP:   1;

NEWTON *       CLOUDY    -4  -8  84 SW6       30.62F WCI -16
PELLA *        CLOUDY     0  -4  85 W6        30.66S WCI -12
PERRY *          N/A     -6 -10  83 SW8       30.62F WCI -21
$$

IAZ004>006-015-016-023>025-035-036-170700-
   NORTH CENTRAL IOWA

CITY           SKY/WX    TMP DP  RH WIND       PRES   REMARKS
ALGONA *       CLEAR     -2  -2 100 SW10      30.53F WCI -19
CLARION *      CLOUDY    -6  -8  92 SW6       30.58F WCI -18
ESTHERVILLE    CLEAR     -1  -4  87 SW6       30.51F WCI -13
6HR MIN TEMP:  -3; 6HR MAX TEMP:   1;

FORT DODGE *   CLOUDY    -8 -12  83 SW3       30.58F
MASON CITY     CLOUDY     0  -4  83 W9        30.55F WCI -15
6HR MIN TEMP:  -6; 6HR MAX TEMP:   0;

FOREST CITY *    N/A     -2  -6  84 W3        30.53F
WEBSTER CITY * CLOUDY    -6 -13  71 SW7       30.58S WCI -20
IOWA FALLS *     N/A     -2  -6  83 W6        30.59F WCI -14
$$

IAZ007>011-017>019-026>030-037>042-050>054-066-170700-
   NORTHEAST IOWA

CITY           SKY/WX    TMP DP  RH WIND       PRES   REMARKS
CEDAR RAPIDS   MOCLDY    -1  -6  79 W9        30.60F WCI -16
6HR MIN TEMP:  -1; 6HR MAX TEMP:   5;

CHARLES CITY *   N/A     -4  -8  84 SW5       30.56F WCI -15
CLINTON *        N/A     -1  -4  87 NW12      30.59F WCI -18
DECORAH *        N/A     -2  -6  84 W7        30.53S WCI -16
DUBUQUE          N/A     -3  -8  79 W6        30.54F WCI -15
6HR MIN TEMP:  -3; 6HR MAX TEMP:   7;

MONTICELLO *   MOCLDY     0  -6  78 W7        30.59F WCI -13
OELWEIN *        N/A     -4  -6  92 W10       30.57F WCI -21
WATERLOO         N/A     -3  -7  82 W3        30.60F
6HR MIN TEMP:  -3; 6HR MAX TEMP:   5;

$$

IAZ064-065-067-068-078-170700-
   EAST CENTRAL IOWA

CITY           SKY/WX    TMP DP  RH WIND       PRES   REMARKS
DAVENPORT        N/A      2  -3  80 W10       30.62S WCI -14
6HR MIN TEMP:   2; 6HR MAX TEMP:  11;

IOWA CITY        N/A      1  -5  75 W6        30.65S WCI -10
6HR MIN TEMP:   0; 6HR MAX TEMP:   8;

MT. PLEASANT * CLOUDY     0  -6  78 W5        30.65S WCI -10
MUSCATINE *    CLOUDY     3  -2  78 W5        30.66S WCI  -6
QUAD CITIES      N/A      4  -1  80 W8        30.62S WCI  -9
6HR MIN TEMP:   3; 6HR MAX TEMP:  12;

$$

IAZ062-063-075>077-085>089-095>099-170700-
   SOUTHEAST IOWA

CITY           SKY/WX    TMP DP  RH WIND       PRES   REMARKS
BURLINGTON     CLOUDY     1  -4  79 W5        30.63F WCI  -9
6HR MIN TEMP:   1; 6HR MAX TEMP:   6;

FAIRFIELD *    CLOUDY     0  -8  71 W7        30.64S WCI -13
FORT MADISON * CLOUDY     1  -2  85 W7        30.65F WCI -11
KEOKUK *       CLOUDY     0  -4  85 W7        30.65F WCI -13
OSKALOOSA *      N/A     -4  -7  85 W6        30.64S WCI -16
OTTUMWA        CLOUDY    -1  -6  79 W5        30.64F WCI -11
6HR MIN TEMP:  -1; 6HR MAX TEMP:   4;

WASHINGTON *   CLOUDY    -2  -4  92 W7        30.65S WCI -16
$$

ABBREVIATIONS USED IN REMARKS
   TC - TEMPERATURES IN CELSIUS
  WCI - WIND CHILL INDEX
   HX - HEAT INDEX
  VSB - VISIBILITY
$$





USA.gov is the U.S. government's official web portal to all federal, state and local government web resources and services.